Tracking 26321 objects as of 27-Nov-2022
HD Live streaming from Space Station
objects crossing your sky now

FUTABA

Track FUTABA now!
10-day predictions
FUTABA is classified as:


NORAD ID: 53463
Int'l Code: 1998-067UC
Perigee: 376.6 km
Apogee: 390.8 km
Inclination: 51.6 °
Period: 92.1 minutes
Semi major axis: 6754 km
RCS: Unknown
Launch date: November 20, 1998
Source: United States (US)
Launch site: TYURATAM MISSILE AND SPACE COMPLEX (TTMTR)

Uplink (MHz):
Downlink (MHz): 437.375
Beacon (MHz): 437.375
Mode: 1200bps AFSK CW
Call sign: JG6YBW
Status: Active

aabbcc
Your satellite tracking list
Your tracking list is empty




NASA's NSSDC Master Catalog

Two Line Element Set (TLE):
1 53463U 98067UC  22330.49349281  .00077345  00000-0  80392-3 0  9992
2 53463  51.6356 247.6208 0010530 144.5262 215.6435 15.63852230 16537
Source of the keplerian elements: AFSPC